Retour au catalogue

STARLINK-5500

ActifCommunicationsVLEO
NORAD 55634·PAYLOAD·🇺🇸 United States

Lancé Feb 17, 2023 depuis Vandenberg Space Force Base

Loading…

Prochains Passages (prochaines 24 heures)

TLE

FraisSource: CelesTrak SupGP

Époque: Sep 15, 2026, 02:46 UTC

1 55634C 23021G   26258.11576389 -.00049727  00000+0 -41677-2 0  2589
2 55634  70.0000  86.8558 0003032 270.2679  35.9957 14.98352125    12

Suivez STARLINK-5500 en temps réel avec AllMySat

Download on the App Store